TimeCDT,TemperatureF,Dew PointF,Humidity,Sea Level PressureIn,VisibilityMPH,Wind Direction,Wind SpeedMPH,Gust SpeedMPH,PrecipitationIn,Events,Conditions,WindDirDegrees,DateUTC
12:53 AM,45.0,43.0,93,30.08,10.0,Calm,Calm,-,N/A,,Clear,0,2013-10-11 05:53:00
1:53 AM,44.1,43.0,96,30.07,9.0,Calm,Calm,-,N/A,,Clear,0,2013-10-11 06:53:00
2:20 AM,42.8,41.0,93,30.07,1.0,Calm,Calm,-,N/A,,Clear,0,2013-10-11 07:20:00
2:33 AM,44.6,42.8,93,30.07,3.0,Calm,Calm,-,N/A,,Clear,0,2013-10-11 07:33:00
2:53 AM,44.1,42.1,93,30.07,6.0,Calm,Calm,-,N/A,,Clear,0,2013-10-11 07:53:00
3:53 AM,43.0,41.0,93,30.08,9.0,Calm,Calm,-,N/A,,Clear,0,2013-10-11 08:53:00
4:53 AM,42.1,42.1,100,30.09,3.0,Calm,Calm,-,N/A,,Clear,0,2013-10-11 09:53:00
5:00 AM,42.8,42.8,100,30.07,1.5,Calm,Calm,-,N/A,,Partly Cloudy,0,2013-10-11 10:00:00
5:03 AM,42.8,42.8,100,30.07,0.8,Calm,Calm,-,N/A,,Mist,0,2013-10-11 10:03:00
5:16 AM,42.8,42.8,100,30.07,1.2,East,3.5,-,N/A,,Partly Cloudy,100,2013-10-11 10:16:00
5:22 AM,42.8,42.8,100,30.07,3.0,East,3.5,-,N/A,,Partly Cloudy,100,2013-10-11 10:22:00
5:51 AM,44.6,44.6,100,30.08,1.8,Calm,Calm,-,N/A,,Clear,0,2013-10-11 10:51:00
5:53 AM,44.1,44.1,100,30.09,1.8,Calm,Calm,-,N/A,,Clear,0,2013-10-11 10:53:00
6:02 AM,44.6,42.8,93,30.07,0.5,Calm,Calm,-,N/A,Fog,Fog,0,2013-10-11 11:02:00
6:13 AM,42.8,42.8,100,30.07,1.8,Calm,Calm,-,N/A,,Clear,0,2013-10-11 11:13:00
6:26 AM,41.0,39.2,93,30.07,0.5,Calm,Calm,-,N/A,Fog,Fog,0,2013-10-11 11:26:00
6:48 AM,42.8,42.8,100,30.06,0.5,Calm,Calm,-,N/A,Fog,Fog,0,2013-10-11 11:48:00
6:53 AM,42.1,42.1,100,30.08,0.8,Calm,Calm,-,N/A,,Mist,0,2013-10-11 11:53:00
7:20 AM,42.8,42.8,100,30.06,1.0,Calm,Calm,-,N/A,,Clear,0,2013-10-11 12:20:00
7:34 AM,41.0,39.2,93,30.05,0.5,Calm,Calm,-,N/A,Fog,Fog,0,2013-10-11 12:34:00
7:53 AM,45.0,44.1,97,30.08,0.8,Calm,Calm,-,N/A,,Clear,0,2013-10-11 12:53:00
8:01 AM,46.4,44.6,93,30.06,2.0,ESE,3.5,-,N/A,,Clear,110,2013-10-11 13:01:00
8:19 AM,48.2,46.4,93,30.06,3.0,ESE,5.8,-,N/A,,Clear,120,2013-10-11 13:19:00
8:53 AM,51.1,48.0,89,30.06,6.0,ESE,6.9,-,N/A,,Clear,120,2013-10-11 13:53:00
9:53 AM,55.0,48.9,80,30.07,10.0,SSE,4.6,-,N/A,,Scattered Clouds,150,2013-10-11 14:53:00
10:53 AM,62.1,52.0,70,30.06,10.0,SE,6.9,-,N/A,,Partly Cloudy,130,2013-10-11 15:53:00
11:53 AM,66.0,51.1,59,30.04,10.0,SSE,10.4,-,N/A,,Overcast,150,2013-10-11 16:53:00
12:53 PM,69.1,51.1,53,30.01,10.0,SSE,13.8,20.7,N/A,,Clear,160,2013-10-11 17:53:00
1:53 PM,70.0,52.0,53,29.98,10.0,SSE,9.2,21.9,N/A,,Scattered Clouds,150,2013-10-11 18:53:00
2:53 PM,68.0,51.1,55,29.95,10.0,SSE,12.7,25.3,N/A,,Mostly Cloudy,150,2013-10-11 19:53:00
3:53 PM,69.1,52.0,54,29.93,10.0,SE,17.3,29.9,N/A,,Mostly Cloudy,140,2013-10-11 20:53:00
4:53 PM,68.0,51.1,55,29.93,10.0,SSE,16.1,25.3,N/A,,Mostly Cloudy,150,2013-10-11 21:53:00
5:53 PM,66.0,50.0,56,29.92,10.0,SE,10.4,25.3,N/A,,Partly Cloudy,140,2013-10-11 22:53:00
6:53 PM,64.0,53.1,67,29.93,10.0,SE,13.8,20.7,N/A,,Mostly Cloudy,130,2013-10-11 23:53:00
7:53 PM,61.0,53.1,75,29.94,10.0,SE,12.7,20.7,N/A,,Partly Cloudy,140,2013-10-12 00:53:00
8:53 PM,61.0,51.1,70,29.94,10.0,SSE,12.7,25.3,N/A,,Mostly Cloudy,150,2013-10-12 01:53:00
9:53 PM,60.1,50.0,69,29.92,10.0,SE,12.7,24.2,N/A,,Mostly Cloudy,140,2013-10-12 02:53:00
10:53 PM,59.0,48.9,69,29.91,10.0,SSE,12.7,-,N/A,,Partly Cloudy,150,2013-10-12 03:53:00
11:53 PM,60.1,48.0,64,29.88,10.0,SSE,10.4,-,N/A,,Overcast,150,2013-10-12 04:53:00